Hoquiam, WA
on Friday, November 30, 2012

Friday
Previous Day Next Day
Daily Summary
 ActualAverageRecord
Temperature
Mean Temperature °F 43°F  
Max Temperature 54°F 48°F 58°F (2002)
Min Temperature 48°F 38°F 24°F (1985)
Degree Days
Heating Degree Days 14 22  
Month to date heating degree days 576  
Cooling Degree Days 0 0  
Month to date cooling degree days 0  
Year to date cooling degree days 23  
Growing Degree Days1 (Base °F )  
Moisture
Dew Point 49°F   
Average Humidity 89    
Maximum Humidity 100    
Minimum Humidity 82    
Precipitation
Precipitation 1.41 in 0.38 in 2.79 in (1966)
Month to date precipitation 11.17  
Year to date precipitation 57.59  
Wind
Wind Speed 16 mph   
Max Wind Speed 29 mph   
Max Gust Speed 40 mph   
Visibility 6 miles   
Events Rain   

Key: T is trace of precipitation, MM is missing value
Source: NWS Daily Summary
Time(PST)TemperatureDew PointHumidity Pressure Visibility Wind DirectionWind SpeedGust SpeedPrecipitationEvents Conditions
12:49 AM 50.0°F 46.4°F 87% 29.36 in 10.0 miles ENE 11.5 mph - 0.00 in   Overcast
12:53 AM 50.0°F 46.9°F 89% 29.37 in 10.0 miles ENE 10.4 mph - 0.00 in   Overcast
1:53 AM 50.0°F 46.9°F 89% 29.37 in 4.0 miles ENE 8.1 mph - 0.07 in Rain Rain
2:17 AM 48.2°F 48.2°F 100% 29.35 in 4.0 miles ENE 10.4 mph - 0.13 in Rain Rain
2:49 AM 48.2°F 48.2°F 100% 29.35 in 9.0 miles ENE 8.1 mph - 0.18 in Rain Light Rain
2:53 AM 50.0°F 48.0°F 93% 29.36 in 10.0 miles ENE 8.1 mph - 0.18 in   Overcast
3:53 AM 50.0°F 48.0°F 93% 29.33 in 10.0 miles ENE 8.1 mph - N/A   Overcast
4:53 AM 50.0°F 46.9°F 89% 29.31 in 6.0 miles ENE 13.8 mph - 0.02 in Rain Rain
5:53 AM 50.0°F 48.0°F 93% 29.33 in 4.0 miles ESE 21.9 mph 32.2 mph 0.10 in Rain Rain
6:02 AM 50.0°F 48.2°F 94% 29.32 in 2.0 miles SE 19.6 mph 28.8 mph 0.06 in Rain Rain
6:09 AM 50.0°F 48.2°F 94% 29.32 in 2.0 miles SE 9.2 mph 25.3 mph 0.12 in Rain Rain
6:18 AM 51.8°F 48.2°F 88% 29.32 in 4.0 miles ESE 12.7 mph 24.2 mph 0.16 in Rain Light Rain
6:53 AM 53.1°F 50.0°F 89% 29.35 in 10.0 miles SSE 20.7 mph 29.9 mph 0.17 in   Overcast
7:34 AM 53.6°F 48.2°F 82% 29.34 in 9.0 miles SSE 20.7 mph 29.9 mph 0.01 in   Overcast
7:53 AM 54.0°F 48.9°F 83% 29.35 in 10.0 miles SSE 21.9 mph 29.9 mph 0.01 in   Overcast
8:08 AM 53.6°F 48.2°F 82% 29.34 in 8.0 miles SSE 19.6 mph 28.8 mph N/A   Overcast
8:53 AM 53.1°F 48.9°F 86% 29.37 in 5.0 miles SSE 21.9 mph 34.5 mph 0.02 in Rain Light Rain
9:08 AM 53.6°F 48.2°F 82% 29.37 in 3.0 miles South 20.7 mph 34.5 mph 0.03 in Rain Light Rain
9:15 AM 51.8°F 50.0°F 94% 29.36 in 2.0 miles South 24.2 mph 29.9 mph 0.05 in Rain Light Rain
9:26 AM 53.6°F 50.0°F 88% 29.37 in 9.0 miles SSE 26.5 mph 34.5 mph 0.06 in   Overcast
9:41 AM 53.6°F 50.0°F 88% 29.37 in 8.0 miles SSE 25.3 mph 40.3 mph 0.06 in   Overcast
9:53 AM 53.1°F 48.9°F 86% 29.39 in 10.0 miles SSE 24.2 mph 38.0 mph 0.06 in   Overcast
10:29 AM 53.6°F 50.0°F 88% 29.39 in 5.0 miles SSE 23.0 mph 29.9 mph 0.02 in Rain Light Rain
10:53 AM 54.0°F 50.0°F 86% 29.40 in 5.0 miles SSE 27.6 mph 39.1 mph 0.04 in   Overcast
11:02 AM 53.6°F 50.0°F 88% 29.38 in 9.0 miles SSE 21.9 mph 32.2 mph N/A   Overcast
11:13 AM 53.6°F 50.0°F 88% 29.38 in 6.0 miles South 20.7 mph 29.9 mph 0.01 in   Overcast
11:23 AM 53.6°F 50.0°F 88% 29.38 in 5.0 miles South 28.8 mph 39.1 mph 0.01 in Rain Light Rain
11:33 AM 53.6°F 50.0°F 88% 29.38 in 2.5 miles South 20.7 mph 34.5 mph 0.05 in Rain Rain
11:43 AM 53.6°F 50.0°F 88% 29.38 in 3.0 miles South 23.0 mph 31.1 mph 0.08 in Rain Rain
11:53 AM 53.1°F 50.0°F 89% 29.39 in 4.0 miles South 27.6 mph 38.0 mph 0.11 in Rain Light Rain
12:23 PM 51.8°F 50.0°F 94% 29.38 in 1.8 miles South 17.3 mph 26.5 mph 0.05 in Rain Rain
12:32 PM 53.6°F 50.0°F 88% 29.38 in 2.5 miles South 21.9 mph 29.9 mph 0.07 in Rain Light Rain
12:34 PM 53.6°F 50.0°F 88% 29.38 in 3.0 miles South 21.9 mph 29.9 mph 0.08 in Rain Light Rain
12:53 PM 54.0°F 50.0°F 86% 29.40 in 9.0 miles South 27.6 mph 38.0 mph 0.09 in   Overcast
1:14 PM 53.6°F 48.2°F 82% 29.39 in 9.0 miles South 26.5 mph 32.2 mph N/A   Overcast
1:30 PM 51.8°F 48.2°F 88% 29.39 in 2.5 miles South 13.8 mph - 0.01 in   Overcast
1:47 PM 53.6°F 48.2°F 82% 29.39 in 4.0 miles South 19.6 mph 28.8 mph 0.04 in Rain Light Rain
1:53 PM 53.1°F 50.0°F 89% 29.40 in 3.0 miles South 20.7 mph 28.8 mph 0.05 in Rain Light Rain
2:04 PM 53.6°F 50.0°F 88% 29.39 in 2.5 miles South 19.6 mph 27.6 mph 0.04 in Rain Rain
2:11 PM 53.6°F 50.0°F 88% 29.39 in 2.0 miles South 19.6 mph 27.6 mph 0.07 in Rain Rain
2:17 PM 51.8°F 50.0°F 94% 29.39 in 1.8 miles South 18.4 mph 27.6 mph 0.11 in Rain Rain
2:26 PM 53.6°F 51.8°F 94% 29.39 in 3.0 miles South 21.9 mph 31.1 mph 0.13 in Rain Light Rain
2:53 PM 53.1°F 50.0°F 89% 29.40 in 6.0 miles South 25.3 mph 31.1 mph 0.14 in Rain Light Rain
3:53 PM 51.8°F 48.2°F 88% 29.41 in 6.0 miles SSE 18.4 mph 28.8 mph N/A Rain Light Rain
4:53 PM 51.1°F 48.0°F 89% 29.42 in 9.0 miles SE 16.1 mph - 0.04 in Rain Light Rain
5:53 PM 51.1°F 46.9°F 86% 29.41 in 10.0 miles SE 15.0 mph 25.3 mph 0.01 in Rain Light Rain
6:53 PM 51.1°F 48.0°F 89% 29.40 in 6.0 miles SSE 17.3 mph 24.2 mph 0.07 in Rain Light Rain
7:02 PM 51.8°F 48.2°F 88% 29.38 in 8.0 miles SSE 12.7 mph - 0.01 in Rain Light Rain
7:38 PM 51.8°F 48.2°F 88% 29.37 in 6.0 miles ESE 11.5 mph - 0.04 in Rain Light Rain
7:46 PM 51.8°F 48.2°F 88% 29.37 in 9.0 miles ESE 12.7 mph - 0.04 in Rain Light Rain
7:53 PM 51.1°F 48.0°F 89% 29.38 in 10.0 miles ESE 12.7 mph - 0.04 in Rain Light Rain
8:05 PM 51.8°F 48.2°F 88% 29.36 in 10.0 miles East 10.4 mph - 0.00 in   Overcast
8:30 PM 50.0°F 48.2°F 94% 29.36 in 9.0 miles ENE 6.9 mph - 0.00 in Rain Light Rain
8:53 PM 50.0°F 48.0°F 93% 29.37 in 7.0 miles ESE 11.5 mph - 0.02 in Rain Light Rain
9:13 PM 51.8°F 48.2°F 88% 29.36 in 4.0 miles SE 20.7 mph 32.2 mph 0.05 in Rain Rain
9:22 PM 51.8°F 48.2°F 88% 29.35 in 4.0 miles SE 20.7 mph 26.5 mph 0.08 in Rain Light Rain
9:41 PM 50.0°F 48.2°F 94% 29.36 in 5.0 miles SSE 20.7 mph 29.9 mph 0.12 in Rain Light Rain
9:53 PM 50.0°F 48.0°F 93% 29.37 in 6.0 miles SSE 18.4 mph - 0.15 in Rain Light Rain
10:09 PM 50.0°F 46.4°F 87% 29.36 in 7.0 miles SE 17.3 mph - 0.02 in Rain Light Rain
10:53 PM 48.9°F 46.0°F 90% 29.34 in 10.0 miles East 10.4 mph - 0.02 in   Overcast
11:53 PM 48.0°F 46.0°F 93% 29.36 in 10.0 miles East 10.4 mph - 0.00 in Rain Light Rain
Moon Phase
Nov. 30 Dec. 06 Dec. 13 Dec. 20 Dec. 28
Sunrise:07:40 AM (PST) Moon Rise:06:29 PM (PST)11/30
Sunset:04:28 PM (PST) Moon Set:09:15 AM (PST)11/30

Copyright © 2014 The Weather Underground, Inc.